Content
SEND FEEDBACK

Daily
Averages
Monthly
Summary
Japan

CHATAN, JAPAN


Home > Asia > Japan
Elevation: 46 meters     Latitude: 26 21N     Longitude: 127 45E

WEATHER
 
SELECT A DAY
Number of Records: 324,294;   Date Range: 7/1/96 - 9/30/14
 
SHARE

PRINT THIS DATA

[ ← Previous Day ]
WEATHER ALMANAC - 31 JANUARY, 2013
[ Next Day → ]
[ °F ]   °C
Weather ElementAverageHighLow
Temperature20.8 °C23 °C (11:00 am)18 °C (1:30 am)
Dewpoint13.6 °C15 °C (5:30 am)12 °C (8:30 pm)
Humidity63.2 %78 % (5:30 am)53 % (1:30 pm)
Barometer1024 hPa1025.1 hPa (8:00 am)1023 hPa (3:00 am)
Wind Speed23.5 km/h31.5 km/h (11:26 am)
Wind Gust50.1 km/h (11:26 am)
Weather ElementAverage
Visibility10 km
Wind DirectionESE (124.4 °)

Weather ElementTotal
Precipitation---
Cooling Degree Days2.2 (Base 18.3)
Growing Degree Days10.5 (Base 10)
Averaged from 54 records on 31 January, 2013
WEATHER CONDITIONS BREAKOUT
WIND DIRECTION BREAKOUT
WEATHER BY HOUR - 31 JANUARY, 2013
[ °F ]   °C
Local TimeTemperatureDewpointHumidityBarometerVisibilityWind DirectionWind SpeedGust SpeedPrecipitationEventsConditions
12:30 AM19 °C14 °C73 %1024 hPa10 kmEast (90°)14.8 km/hRainLight Rain
1:00 AM19 °C14 °C73 %1024 hPa10 kmEast (100°)11.1 km/hMostly Cloudy
1:30 AM18 °C14 °C77 %1024 hPa10 kmEast (100°)16.7 km/hRainLight Rain
2:00 AM19 °C14 °C73 %1024 hPa10 kmESE (120°)16.7 km/hRainLight Rain
2:30 AM19 °C14 °C73 %1024 hPa10 kmESE (110°)14.8 km/hRainLight Rain
3:00 AM19 °C14 °C73 %1023 hPa10 kmESE (110°)16.7 km/hMostly Cloudy
3:30 AM19 °C14 °C73 %1023 hPa10 kmESE (110°)16.7 km/hMostly Cloudy
4:00 AM20 °C14 °C68 %1023 hPa10 kmESE (110°)16.7 km/hMostly Cloudy
4:30 AM20 °C14 °C68 %1023 hPa10 kmESE (110°)18.5 km/hMostly Cloudy
5:00 AM19 °C14 °C73 %1023 hPa10 kmESE (110°)20.4 km/hMostly Cloudy
5:30 AM19 °C15 °C78 %1023 hPa10 kmESE (110°)18.5 km/hMostly Cloudy
6:00 AM20 °C14 °C68 %1024 hPa10 kmESE (120°)18.5 km/hMostly Cloudy
6:30 AM20 °C14 °C68 %1024 hPa10 kmESE (120°)20.4 km/hMostly Cloudy
7:00 AM20 °C14 °C68 %1024 hPa10 kmESE (110°)16.7 km/hMostly Cloudy
7:30 AM20 °C14 °C68 %1024 hPa10 kmESE (120°)24.1 km/hMostly Cloudy
8:00 AM20 °C14 °C68 %1025.1 hPa10 kmESE (110°)22.2 km/hMostly Cloudy
8:30 AM20 °C14 °C68 %1025.1 hPa10 kmESE (120°)24.1 km/hMostly Cloudy
9:00 AM21 °C14 °C64 %1025.1 hPa10 kmESE (120°)20.4 km/hMostly Cloudy
9:30 AM21 °C14 °C64 %1025.1 hPa10 kmESE (120°)20.4 km/h38.9 km/hMostly Cloudy
10:00 AM21 °C14 °C64 %1025.1 hPa10 kmESE (120°)24.1 km/hMostly Cloudy
10:24 AM22 °C14 °C60 %1025.1 hPa10 kmESE (120°)27.8 km/h46.3 km/hMostly Cloudy
10:30 AM22 °C14 °C60 %1025.1 hPa10 kmESE (120°)29.6 km/hMostly Cloudy
10:32 AM22 °C14 °C60 %1025.1 hPa10 kmESE (120°)27.8 km/h46.3 km/hMostly Cloudy
11:00 AM23 °C14 °C57 %1025.1 hPa10 kmSE (130°)29.6 km/hScattered Clouds
11:26 AM22 °C14 °C60 %1025.1 hPa10 kmSE (130°)31.5 km/h50.1 km/hScattered Clouds
11:30 AM23 °C14 °C57 %1025.1 hPa10 kmSE (130°)31.5 km/h50.1 km/hScattered Clouds
12:00 PM22 °C14 °C60 %1025.1 hPa10 kmSE (130°)27.8 km/hMostly Cloudy
12:19 PM21 °C13 °C60 %1025.1 hPa10 kmSE (130°)27.8 km/h46.3 km/hMostly Cloudy
12:30 PM22 °C13 °C57 %1025.1 hPa10 kmSE (130°)29.6 km/hMostly Cloudy
12:45 PM22 °C13 °C57 %1024 hPa10 kmSE (130°)27.8 km/h46.3 km/hMostly Cloudy
1:00 PM22 °C13 °C57 %1024 hPa10 kmSE (140°)29.6 km/hMostly Cloudy
1:30 PM23 °C13 °C53 %1024 hPa10 kmSE (130°)27.8 km/hMostly Cloudy
2:00 PM23 °C13 °C53 %1023 hPa10 kmSE (130°)29.6 km/hMostly Cloudy
2:20 PM23 °C13 °C53 %1023 hPa10 kmSE (130°)27.8 km/h46.3 km/hScattered Clouds
2:30 PM23 °C14 °C57 %1023 hPa10 kmSE (130°)31.5 km/hScattered Clouds
3:00 PM22 °C14 °C60 %1023 hPa10 kmSE (130°)27.8 km/hMostly Cloudy
3:30 PM23 °C14 °C57 %1023 hPa10 kmSE (130°)27.8 km/hMostly Cloudy
4:00 PM22 °C13 °C57 %1023 hPa10 kmSE (130°)29.6 km/hScattered Clouds
4:30 PM22 °C13 °C57 %1023 hPa10 kmSE (130°)25.9 km/h44.4 km/hScattered Clouds
5:00 PM21 °C13 °C60 %1023 hPa10 kmSE (140°)25.9 km/hPartly Cloudy
5:30 PM21 °C13 °C60 %1024 hPa10 kmSE (130°)22.2 km/hMostly Cloudy
6:00 PM21 °C14 °C64 %1024 hPa10 kmSE (130°)18.5 km/hMostly Cloudy
6:30 PM21 °C13 °C60 %1024 hPa10 kmSE (140°)22.2 km/hMostly Cloudy
7:00 PM21 °C14 °C64 %1024 hPa10 kmSE (140°)18.5 km/hMostly Cloudy
7:30 PM21 °C13 °C60 %1024 hPa10 kmSE (130°)22.2 km/hMostly Cloudy
8:00 PM21 °C13 °C60 %1024 hPa10 kmSE (130°)22.2 km/hMostly Cloudy
8:30 PM20 °C12 °C60 %1024 hPa10 kmSE (130°)22.2 km/hScattered Clouds
9:00 PM20 °C12 °C60 %1025.1 hPa10 kmSE (140°)20.4 km/hMostly Cloudy
9:30 PM20 °C13 °C64 %1025.1 hPa10 kmSE (140°)24.1 km/hMostly Cloudy
10:00 PM21 °C13 °C60 %1024 hPa10 kmSE (130°)25.9 km/hMostly Cloudy
10:12 PM21 °C13 °C60 %1024 hPa10 kmSE (130°)27.8 km/h46.3 km/hMostly Cloudy
10:30 PM20 °C13 °C64 %1025.1 hPa10 kmSE (140°)24.1 km/hMostly Cloudy
11:00 PM20 °C13 °C64 %1024 hPa10 kmSE (140°)24.1 km/hPartly Cloudy
11:30 PM20 °C12 °C60 %1024 hPa10 kmSE (140°)24.1 km/hPartly Cloudy
Hourly data recorded from ROAH, located 0 kilometers away from Chatan, Japan







STORIES FROM OUR PARTNERS